[[{"header":{"parameterUnit":"m.s-1","parameterCategory":1,"la1":30.2991,"la2":30.254,"lo1":-89.0895,"lo2":-89.0444,"dy":0.0017,"dx":0.0017,"nx":28,"ny":28,"refTime":"2024-07-31T09:00:00:Z","depth":0,"parameterNumber":2,"parameterNumberName":"U-component_of_WINDS"},"data":[0,0,0,0,0,0,0,0,0,0,0,0,0,0,0,0,0,0,0,0,0,0,0,0,0,0,0,0,0,0,0,0,0,0,0,0,0,0,0,0,0,0,0,0,0,0,0,0,0,0,0,0,0,0,0,0,0,0,2.0425,2.0426,0,2.0488,2.0488,2.0489,2.0466,2.0465,2.0463,2.0462,2.0525,2.0528,2.0531,0,0,0,0,0,0,0,0,0,0,0,0,0,2.0285,2.0288,2.0425,2.0426,2.0427,2.0487,2.0488,2.0489,2.0466,2.0464,2.0463,2.0461,2.0524,2.0528,2.0531,0,0,0,0,0,0,0,0,0,0,0,0,0,2.0346,2.0288,2.0425,2.0423,2.0423,2.0487,2.0488,2.0489,2.0467,2.0464,2.0462,2.046,2.0523,2.0527,2.0532,2.0602,0,0,2.0546,2.0547,0,0,0,0,0,0,0,0,2.0343,2.0352,2.0422,2.0423,2.0423,2.0467,2.0462,2.0527,2.0467,2.045,2.0462,2.0459,2.0507,2.0513,2.0529,2.0605,2.0608,2.0546,2.0549,2.0551,2.0552,0,0,0,0,0,0,0,2.0339,2.0349,2.045,2.0423,2.0424,2.0418,2.0424,2.0474,2.049,2.0451,2.045,2.0458,2.0507,2.0525,2.0531,2.0609,2.0546,2.055,2.0553,2.0554,2.0743,2.0745,0,0,0,0,0,0,2.0334,2.0345,2.0448,2.0452,2.0377,2.0422,2.0429,2.0455,2.0489,2.0492,2.0459,2.0456,2.0518,2.0525,2.0533,2.0616,2.0551,2.0555,2.0557,2.074,2.0743,2.0746,0,0,0,0,0,0,2.0331,2.0344,2.0445,2.0398,2.0411,2.0427,2.0456,2.0457,2.0475,2.0495,2.0498,2.0475,2.0517,2.0526,2.0585,2.0618,2.0557,2.0561,2.0738,2.0741,2.0745,2.0783,0,0,0,0,0,0,2.0327,2.0343,2.037,2.0399,2.0413,2.0497,2.0458,2.046,2.0483,2.048,2.051,2.0513,2.0516,2.0578,2.0589,2.0623,2.0564,2.0735,2.0739,2.0743,2.0779,2.0787,2.0795,0,0,0,0,0,2.0323,2.0379,2.0372,2.0384,2.0448,2.0499,2.0507,2.0509,2.0486,2.0513,2.0526,2.0512,2.0612,2.0584,2.0596,2.0632,2.0733,2.0738,2.0743,2.0775,2.0786,2.0795,0,0,0,0,0,0,2.0353,2.0383,2.0375,2.0442,2.0468,2.0495,2.0529,2.052,2.0553,2.0548,2.055,2.0557,2.0616,2.063,2.0598,2.0701,2.0669,2.0677,2.0689,2.0699,2.0707,2.0702,2.0568,0,0,0,0,0,2.0368,2.0407,2.0431,2.0488,2.0501,2.0513,2.0535,2.0534,2.0561,2.0572,2.0589,2.0615,2.0652,2.0677,2.0712,2.0781,2.0786,2.0811,2.0819,2.0826,2.0832,2.0868,2.0879,2.0763,2.0763,2.0763,0,0,2.0399,2.042,2.0444,2.0494,2.0514,2.0554,2.0522,2.0566,2.0595,2.0579,2.0634,2.0647,2.0677,2.074,2.0769,2.0753,2.0866,2.0832,2.0837,2.084,2.0874,2.0885,2.0895,2.0766,2.0766,2.0765,0,0,2.0475,2.0495,2.0544,2.0564,2.0595,2.0602,2.0614,2.0642,2.065,2.0706,2.0693,2.0728,2.0792,2.0813,2.0832,2.0915,2.0903,2.0926,2.0967,2.1002,2.1011,2.1019,2.1047,2.1057,2.0933,2.0933,2.0933,0,2.0509,2.0569,2.057,2.0615,2.0637,2.0623,2.0672,2.0692,2.0732,2.0747,2.073,2.0809,2.0828,2.0895,2.0915,2.0931,2.0944,2.0922,2.101,2.1018,2.1025,2.1052,2.1063,2.0936,2.0935,2.0935,2.0935,0,2.0609,2.065,2.0686,2.0725,2.0751,2.0798,2.0805,2.0831,2.0828,2.0837,2.0893,2.0915,2.0954,2.097,2.0968,2.1036,2.1026,2.1009,2.0977,2.1039,2.1064,2.1074,2.0939,2.0938,2.0937,2.0937,0,0,2.0706,2.0745,2.0758,2.0774,2.0806,2.0838,2.0884,2.0922,2.0943,2.0971,2.1009,2.1063,2.1047,2.1069,2.1069,2.1099,2.1161,2.1079,2.1079,2.1092,2.1236,2.1247,2.1259,2.1154,2.1156,2.1158,2.1233,0,2.0784,2.0864,2.0866,2.0938,2.0976,2.0963,2.1002,2.1026,2.1035,2.1068,2.1078,2.1116,2.1093,2.1106,2.1136,2.1147,2.119,2.1142,2.1187,2.1189,2.1179,2.1273,2.1285,2.1355,2.1243,2.1245,2.1246,0,2.0885,2.0916,2.0992,2.1017,2.1033,2.1068,2.1102,2.1134,2.116,2.1164,2.1188,2.1183,2.1228,2.1195,2.1257,2.1224,2.1243,2.1251,2.1254,2.1258,2.122,2.1277,2.1378,2.1388,2.1262,2.126,2.1259,0,2.0947,2.1007,2.106,2.1075,2.1106,2.1131,2.1145,2.1169,2.1191,2.1221,2.1235,2.1269,2.1288,2.1315,2.1319,2.1295,2.138,2.1348,2.1384,2.1384,2.1402,2.14,2.1506,2.1416,2.1416,2.1416,2.1415,0,2.1032,2.1079,2.1088,2.1121,2.1172,2.1174,2.1225,2.1237,2.1258,2.1292,2.1283,2.1315,2.1319,2.1351,2.1355,2.1404,2.1413,2.1417,2.1417,2.1417,2.1417,2.1429,2.1424,2.1419,2.1418,2.1417,2.1417,0,2.111,2.1118,2.1174,2.1199,2.1206,2.1243,2.1263,2.1294,2.1302,2.1345,2.1355,2.1367,2.1405,2.1412,2.1457,2.1459,2.1518,2.1514,2.1509,2.1508,2.1543,2.1539,2.1659,2.1674,2.1576,2.1577,2.1578,0,2.1163,2.1199,2.1227,2.1249,2.1264,2.13,2.1322,2.1324,2.1348,2.1379,2.1405,2.1442,2.1472,2.1533,2.1546,2.158,2.1575,2.1615,2.158,2.1578,2.1574,2.1571,2.1574,2.1621,2.1622,2.1623,2.1624,0,2.1257,2.1259,2.1291,2.1325,2.1351,2.1378,2.1403,2.1422,2.1427,2.1454,2.1492,2.1515,2.156,2.1596,2.163,2.1643,2.1634,2.1635,2.1644,2.1644,2.1639,2.1641,2.1526,2.1632,2.1631,2.163,2.163,2.163,2.1324,2.1354,2.1378,2.1413,2.1432,2.1456,2.1485,2.1496,2.1528,2.1565,2.1565,2.1606,2.163,2.1674,2.1689,2.1721,2.1709,2.1723,2.1727,2.173,2.1732,2.1635,2.1728,2.1728,2.1727,2.1727,2.1727,0,2.1416,2.143,2.1463,2.1498,2.1526,2.1515,2.1541,2.1565,2.1602,2.1625,2.1653,2.1697,2.1731,2.1747,2.178,2.1803,2.1799,2.1812,2.1809,2.1812,2.1743,2.173,2.1814,2.1814,2.1814,2.1814,2.1814,2.1814,2.1467,2.1517,2.1521,2.158,2.1594,2.1634,2.165,2.1671,2.1689,2.1738,2.1766,2.1776,2.1795,2.183,2.1861,2.1864,2.1876,2.189,2.1892,2.1826,2.1817,2.1809,2.1797,2.1893,2.1894,2.1958,2.1959,2.1959]},{"header":{"parameterUnit":"m.s-1","parameterCategory":1,"la1":30.2991,"la2":30.254,"lo1":-89.0895,"lo2":-89.0444,"dy":0.0017,"dx":0.0017,"nx":28,"ny":28,"refTime":"2024-07-31T09:00:00:Z","depth":0,"parameterNumber":3,"parameterNumberName":"V-component_of_WINDS"},"data":[0,0,0,0,0,0,0,0,0,0,0,0,0,0,0,0,0,0,0,0,0,0,0,0,0,0,0,0,0,0,0,0,0,0,0,0,0,0,0,0,0,0,0,0,0,0,0,0,0,0,0,0,0,0,0,0,0,0,-1.3906,-1.3906,0,-1.3921,-1.3921,-1.3922,-1.3906,-1.3906,-1.3905,-1.3905,-1.3918,-1.3919,-1.392,0,0,0,0,0,0,0,0,0,0,0,0,0,-1.3863,-1.3864,-1.3906,-1.3906,-1.3907,-1.3921,-1.3921,-1.3922,-1.3906,-1.3906,-1.3905,-1.3904,-1.3918,-1.3919,-1.392,0,0,0,0,0,0,0,0,0,0,0,0,0,-1.388,-1.3864,-1.3906,-1.3901,-1.3901,-1.3921,-1.3921,-1.3922,-1.3907,-1.3906,-1.3905,-1.3904,-1.3917,-1.3919,-1.392,-1.3946,0,0,-1.3924,-1.3925,0,0,0,0,0,0,0,0,-1.3879,-1.3882,-1.3901,-1.3901,-1.3901,-1.3911,-1.3911,-1.393,-1.3907,-1.3904,-1.3905,-1.3904,-1.3916,-1.3918,-1.3922,-1.3947,-1.3947,-1.3924,-1.3925,-1.3926,-1.3926,0,0,0,0,0,0,0,-1.3878,-1.3881,-1.3912,-1.3902,-1.3901,-1.3897,-1.3899,-1.3914,-1.3915,-1.3904,-1.3903,-1.3905,-1.3916,-1.3921,-1.3923,-1.3947,-1.3924,-1.3925,-1.3926,-1.3927,-1.3994,-1.3995,0,0,0,0,0,0,-1.3878,-1.388,-1.3912,-1.3913,-1.3888,-1.3899,-1.39,-1.3909,-1.3915,-1.3915,-1.3906,-1.3905,-1.3919,-1.3921,-1.3923,-1.3954,-1.3926,-1.3927,-1.3928,-1.3993,-1.3994,-1.3995,0,0,0,0,0,0,-1.3877,-1.3881,-1.3911,-1.3896,-1.39,-1.39,-1.391,-1.3909,-1.3915,-1.3916,-1.3916,-1.3911,-1.3919,-1.3921,-1.394,-1.3954,-1.3928,-1.3929,-1.3992,-1.3993,-1.3994,-1.4015,0,0,0,0,0,0,-1.3876,-1.388,-1.3891,-1.3896,-1.39,-1.3929,-1.3911,-1.391,-1.3917,-1.3915,-1.3921,-1.3921,-1.3918,-1.3939,-1.3942,-1.3955,-1.393,-1.399,-1.3992,-1.3994,-1.4013,-1.4017,-1.402,0,0,0,0,0,-1.3874,-1.3895,-1.3891,-1.3895,-1.3913,-1.393,-1.3932,-1.3929,-1.3918,-1.3928,-1.3929,-1.3921,-1.3952,-1.3941,-1.3944,-1.3958,-1.3989,-1.3992,-1.3994,-1.4012,-1.4016,-1.402,0,0,0,0,0,0,-1.389,-1.3896,-1.3891,-1.3916,-1.3922,-1.3927,-1.394,-1.3934,-1.3943,-1.3941,-1.3936,-1.3937,-1.3958,-1.396,-1.3947,-1.3984,-1.3969,-1.3972,-1.3981,-1.3986,-1.3989,-1.3988,-1.3931,0,0,0,0,0,-1.3897,-1.391,-1.3914,-1.3935,-1.3939,-1.3939,-1.3946,-1.3943,-1.3949,-1.3952,-1.3954,-1.396,-1.3972,-1.3979,-1.3989,-1.4014,-1.4015,-1.4025,-1.4029,-1.4032,-1.4034,-1.4047,-1.4052,-1.4002,-1.4002,-1.4002,0,0,-1.391,-1.3915,-1.3924,-1.3939,-1.3944,-1.3957,-1.3941,-1.3956,-1.3966,-1.3954,-1.3972,-1.3975,-1.3981,-1.4003,-1.4013,-1.4006,-1.4048,-1.4034,-1.4037,-1.4038,-1.405,-1.4054,-1.4059,-1.4003,-1.4003,-1.4003,0,0,-1.3941,-1.3947,-1.3965,-1.397,-1.3978,-1.3978,-1.3982,-1.3988,-1.3989,-1.4008,-1.3999,-1.401,-1.403,-1.4035,-1.404,-1.4074,-1.4066,-1.4077,-1.4095,-1.4108,-1.4112,-1.4115,-1.4127,-1.4131,-1.408,-1.408,-1.408,0,-1.3957,-1.3977,-1.3974,-1.399,-1.3996,-1.3987,-1.4005,-1.401,-1.4021,-1.4025,-1.4017,-1.4042,-1.4045,-1.4068,-1.4077,-1.4081,-1.4085,-1.4076,-1.4112,-1.4115,-1.4118,-1.4129,-1.4134,-1.4081,-1.4081,-1.4081,-1.408,0,-1.3996,-1.401,-1.4023,-1.4035,-1.4043,-1.4059,-1.4058,-1.4067,-1.4063,-1.4064,-1.4083,-1.4087,-1.4098,-1.4104,-1.41,-1.4126,-1.4121,-1.4113,-1.4098,-1.4124,-1.4135,-1.4139,-1.4083,-1.4082,-1.4082,-1.4082,0,0,-1.4037,-1.4047,-1.4052,-1.4057,-1.4065,-1.4076,-1.4092,-1.4103,-1.411,-1.4118,-1.4131,-1.4148,-1.414,-1.4146,-1.4143,-1.4154,-1.418,-1.4144,-1.4144,-1.415,-1.4208,-1.4215,-1.422,-1.4175,-1.4176,-1.4177,-1.4208,0,-1.4068,-1.4096,-1.4094,-1.4121,-1.4134,-1.4126,-1.4139,-1.4146,-1.4147,-1.4157,-1.4158,-1.417,-1.4159,-1.4163,-1.4173,-1.4174,-1.4191,-1.4172,-1.4186,-1.4187,-1.4184,-1.4225,-1.4231,-1.4261,-1.4212,-1.4212,-1.4213,0,-1.4108,-1.4118,-1.4146,-1.4152,-1.4158,-1.417,-1.4181,-1.4191,-1.4198,-1.4198,-1.4205,-1.42,-1.4215,-1.4201,-1.4222,-1.4209,-1.4215,-1.4216,-1.4217,-1.4218,-1.4201,-1.4226,-1.427,-1.4274,-1.4219,-1.4219,-1.4218,0,-1.4134,-1.4155,-1.4174,-1.4179,-1.4187,-1.4196,-1.42,-1.4206,-1.4213,-1.4222,-1.4226,-1.4237,-1.4242,-1.425,-1.4248,-1.4238,-1.427,-1.4255,-1.4269,-1.4269,-1.4276,-1.4275,-1.4321,-1.4281,-1.4281,-1.428,-1.428,0,-1.4169,-1.4186,-1.4186,-1.4198,-1.4217,-1.4215,-1.4234,-1.4236,-1.4242,-1.4254,-1.4247,-1.4258,-1.4255,-1.4266,-1.4264,-1.4281,-1.4284,-1.4284,-1.4283,-1.4284,-1.4284,-1.4288,-1.4285,-1.4282,-1.4281,-1.4281,-1.4281,0,-1.4202,-1.4202,-1.4223,-1.4229,-1.4231,-1.4245,-1.425,-1.4261,-1.4262,-1.4277,-1.428,-1.4281,-1.4294,-1.4293,-1.4306,-1.4305,-1.4327,-1.4324,-1.4325,-1.4324,-1.4339,-1.4337,-1.4387,-1.4393,-1.435,-1.435,-1.4351,0,-1.4223,-1.4237,-1.4245,-1.4253,-1.4257,-1.427,-1.4277,-1.4275,-1.4283,-1.4292,-1.4302,-1.4314,-1.4323,-1.4343,-1.4345,-1.4355,-1.4352,-1.4369,-1.4354,-1.4354,-1.4352,-1.4351,-1.4352,-1.4372,-1.4372,-1.4373,-1.4373,0,-1.4262,-1.4262,-1.4273,-1.4285,-1.4294,-1.4303,-1.4311,-1.4317,-1.4316,-1.4325,-1.4338,-1.4346,-1.436,-1.4372,-1.4382,-1.4385,-1.4379,-1.4378,-1.4382,-1.4383,-1.4383,-1.4383,-1.4333,-1.4377,-1.4376,-1.4376,-1.4376,-1.4376,-1.4289,-1.4301,-1.4309,-1.4321,-1.4327,-1.4335,-1.4346,-1.4348,-1.4359,-1.4371,-1.4369,-1.4384,-1.439,-1.4403,-1.4407,-1.4418,-1.4412,-1.4418,-1.4419,-1.442,-1.4422,-1.4382,-1.442,-1.442,-1.442,-1.442,-1.442,0,-1.4327,-1.4332,-1.4344,-1.4356,-1.4366,-1.436,-1.4369,-1.4377,-1.439,-1.4397,-1.4407,-1.4421,-1.4433,-1.4436,-1.4447,-1.4455,-1.4452,-1.4458,-1.4457,-1.4457,-1.4427,-1.4422,-1.4459,-1.4459,-1.4459,-1.4459,-1.4459,-1.4459,-1.4348,-1.4367,-1.4368,-1.439,-1.4394,-1.4409,-1.4414,-1.4421,-1.4427,-1.4444,-1.4453,-1.4455,-1.446,-1.4472,-1.4482,-1.4482,-1.4486,-1.4493,-1.4492,-1.4464,-1.446,-1.4456,-1.4451,-1.4494,-1.4494,-1.4522,-1.4522,-1.4522]}]]